Flag for Cameroon Weather past 2 weeks in Bamenda, Cameroon

75 °F

Passing clouds.

Feels Like: 74 °F
Forecast: 60 / 78 °F
Wind: No wind

Location: Douala Obs.

Current Time: Oct 4, 2015 at 6:06:25 AM

Latest Report: Oct 4, 2015 at 5:00 AM

Visibility: N/A

Pressure: 29.86 "Hg (25.89 "Hg at 1240m altitude)

Humidity: 94%

Dew point: 73 °F

Location of BamendaLocation

Historic Weather in Bamenda — Graph


Bamenda temperature yesterday

Maximum temperature yesterday: 84 °F (at 1:00 PM)
Minimum temperature yesterday: 77 °F (at 2:00 AM)
Average temperature yesterday: 80 °F

Past Weeks' High & Low Weather Summary

High88 °F (Oct 1, 2:00 PM)100% (Sep 19, 4:00 AM)30.04 "Hg (Sep 19, 4:00 AM)
Low73 °F (Sep 20, 11:00 PM)62% (Oct 1, 2:00 PM)29.74 "Hg (Oct 1, 4:00 PM)
Average79 °F89%29.88 "Hg
* Reported Sep 19 4:00 AM — Oct 4 4:00 AM, Bamenda, Weather by CustomWeather, © 2015

Note: Actual official high and low records may vary slightly from our data, if they occured in-between our weather recording intervals... More about our weather records


Bamenda weather history for previous 24 hours

Time TempWeatherWind HumidityBarometerVisibility
4:00 AM
Sun, Oct 4
77 °FPassing clouds.No wind94%29.86 "HgN/A
3:00 AM77 °FPassing clouds.No wind94%29.86 "HgN/A
2:00 AM77 °FPassing clouds.1 mph94%29.89 "HgN/A
1:00 AM77 °FPassing clouds.No wind94%29.89 "Hg5 mi
12:00 AM77 °FPassing clouds.No wind100%29.92 "Hg5 mi
11:00 PM
Sat, Oct 3
79 °FPassing clouds.No wind94%29.92 "HgN/A
10:00 PM79 °FPassing clouds.No wind94%29.92 "HgN/A
9:00 PM79 °FPassing clouds.No wind94%29.92 "HgN/A
8:00 PM81 °FPassing clouds.No wind84%29.89 "HgN/A
7:00 PM81 °FPassing clouds.2 mph84%29.86 "HgN/A
6:00 PM81 °FPartly sunny.5 mph84%29.83 "HgN/A
5:00 PM81 °FBroken clouds.8 mph84%29.80 "HgN/A
4:00 PM82 °FBroken clouds.9 mph84%29.80 "HgN/A
3:00 PM84 °FBroken clouds.7 mph74%29.80 "HgN/A
2:00 PM84 °FBroken clouds.9 mph74%29.83 "HgN/A
1:00 PM84 °FThunderstorms. Partly sunny.7 mph79%29.86 "HgN/A
12:00 PM82 °FThunderstorms. Partly sunny.5 mph79%29.89 "Hg5 mi
11:00 AM82 °FThunderstorms. Partly sunny.5 mph79%29.89 "Hg5 mi
10:00 AM81 °FThunderstorms. Partly sunny.3 mph84%29.92 "Hg5 mi
9:00 AM79 °FThunderstorms. Broken clouds.No wind89%29.89 "Hg4 mi
6:58 AM77 °FThunderstorms. Broken clouds.5 mph94%29.86 "Hg2 mi
6:00 AM77 °FThunderstorms. Mostly cloudy.3 mph94%29.86 "Hg5 mi
Weather by CustomWeather, © 2015

See weather overviewHow to use our weather pages